Wetbulb
55.23 55.24 55.52 55.30 54.67 54.40 54.43 54.30 53.84 51.67 48.94 47.06 46.70 45.75 44.51 43.52 42.52 42.36 41.51 40.77 40.26 39.80
55.80 56.03 55.70 55.24 55.53 55.26 55.48 54.21 52.04 50.09 47.57 46.59 45.93 45.25 44.31 42.92 41.69 41.67 40.85 40.28 39.54 39.15
55.73 56.23 56.30 55.37 54.85 55.17 55.00 53.83 51.82 50.25 48.76 46.24 44.06 44.81 44.10 42.31 41.36 40.50 39.81 39.26 38.63 38.27
56.29 56.50 56.08 55.49 55.58 55.33 54.71 53.16 51.24 48.18 46.05 44.38 42.25 42.70 42.31 40.67 37.82 38.03 37.29 38.89 38.38 37.30
56.55 55.98 55.40 55.52 55.16 55.63 54.06 52.82 50.89 48.84 46.07 42.89 42.20 39.35 40.01 37.52 37.21 36.44 36.09 37.63 37.63 36.47
56.29 55.44 55.10 55.28 55.32 54.56 53.88 52.05 51.09 49.55 45.16 41.68 40.45 39.21 39.94 37.64 35.64 36.10 35.82 37.78 37.22 36.43
55.50 55.58 55.63 55.65 55.19 54.57 53.80 51.96 50.89 48.88 45.37 41.66 40.11 39.49 37.51 36.63 35.29 35.16 35.81 36.50 37.33 36.85
56.06 55.63 55.42 54.91 54.70 54.63 53.34 52.02 50.79 48.24 45.09 41.44 40.44 38.66 37.27 38.63 34.90 35.02 34.78 36.11 36.89 37.07
55.44 55.06 54.53 54.34 54.23 52.67 52.46 51.59 49.40 44.29 42.08 40.31 39.78 37.07 36.68 37.24 34.62 34.57 34.24 34.48 36.69 37.17
54.53 54.15 54.14 54.03 52.60 50.60 51.50 50.78 45.56 42.75 41.88 40.62 39.13 36.46 36.27 35.61 36.09 33.70 33.84 36.39 36.59 35.62
53.99 53.53 53.37 52.94 51.06 49.64 50.62 46.27 43.42 41.94 40.64 39.29 36.98 36.23 36.08 34.83 34.84 33.78 34.49 36.66 37.23 36.61
53.81 53.18 52.17 51.59 50.11 49.06 47.60 43.78 42.11 40.35 38.92 37.49 36.57 35.77 35.25 35.03 33.05 32.81 33.77 35.89 35.32 36.55
53.63 52.56 51.59 51.78 49.08 46.15 44.84 41.97 39.83 37.98 38.02 37.35 36.86 35.58 35.07 34.17 32.92 31.74 32.36 33.74 33.93 32.47
52.26 51.12 51.28 49.79 48.31 43.94 41.57 39.14 37.63 36.26 36.26 36.11 36.10 35.43 34.82 34.10 32.09 31.38 31.55 30.95 32.42 32.58
MSLP
1022.18 1022.73 1023.40 1024.00 1024.49 1025.11 1025.47 1026.15 1027.06 1027.83 1028.47 1028.92 1029.24 1029.78 1030.64 1031.01 1031.19 1031.62 1031.87 1032.09 1032.37 1032.53
1021.54 1022.02 1022.49 1023.31 1023.90 1024.28 1024.84 1025.71 1026.96 1027.69 1028.44 1029.11 1029.61 1029.76 1030.21 1030.83 1031.37 1031.69 1032.05 1032.23 1032.69 1032.67
1020.50 1021.19 1021.90 1022.71 1023.16 1023.78 1024.45 1025.27 1026.29 1027.09 1027.75 1028.71 1029.28 1029.95 1030.00 1030.67 1031.32 1031.61 1032.11 1032.26 1032.59 1032.92
1019.79 1020.46 1021.21 1021.72 1022.32 1022.99 1023.89 1024.67 1025.51 1026.22 1027.21 1027.94 1029.10 1029.37 1029.67 1030.30 1031.20 1031.39 1032.02 1032.23 1032.35 1032.94
1019.37 1020.03 1020.54 1021.06 1021.72 1022.29 1023.14 1024.06 1024.73 1025.63 1026.71 1027.45 1028.05 1029.13 1029.43 1030.25 1030.71 1031.15 1031.72 1032.19 1032.44 1032.77
1018.52 1019.17 1019.73 1020.49 1021.20 1021.83 1022.35 1023.17 1023.99 1024.72 1025.71 1026.80 1027.62 1028.46 1028.86 1029.57 1030.17 1030.83 1031.39 1031.63 1031.85 1032.29
1017.49 1018.20 1019.01 1019.85 1020.58 1021.27 1021.71 1022.45 1023.31 1024.01 1024.94 1025.91 1026.70 1027.71 1028.56 1029.25 1029.85 1030.59 1031.16 1031.71 1031.81 1032.01
1016.77 1017.64 1018.48 1019.19 1019.86 1020.46 1021.27 1021.78 1022.54 1023.50 1024.54 1025.63 1026.24 1026.88 1027.79 1028.40 1029.27 1030.12 1030.83 1031.47 1031.74 1032.05
1016.17 1016.89 1017.55 1018.30 1019.06 1019.77 1020.49 1021.35 1022.29 1023.02 1023.83 1024.66 1025.37 1026.17 1027.05 1027.82 1028.94 1029.54 1030.32 1030.91 1031.29 1031.73
1015.27 1015.92 1016.69 1017.48 1018.34 1019.07 1019.69 1020.68 1021.68 1022.52 1023.33 1024.09 1024.86 1025.84 1026.75 1027.61 1028.24 1029.11 1029.77 1030.14 1030.56 1031.42
1014.61 1015.31 1016.19 1016.95 1017.74 1018.56 1019.30 1020.10 1020.94 1021.96 1022.89 1023.79 1024.61 1025.43 1026.33 1027.38 1028.02 1028.85 1029.35 1029.69 1029.90 1030.65
1014.27 1014.83 1015.48 1016.39 1017.29 1017.95 1018.97 1019.86 1020.61 1021.46 1022.41 1023.26 1024.19 1025.00 1025.81 1026.87 1027.86 1028.41 1028.92 1029.31 1029.80 1030.23
1014.47 1014.83 1015.35 1015.83 1016.78 1017.80 1018.69 1019.65 1020.53 1021.34 1022.20 1022.96 1023.89 1024.78 1025.64 1026.45 1027.29 1027.97 1028.48 1029.11 1029.72 1030.49
1014.55 1015.04 1015.33 1016.11 1017.10 1017.99 1018.69 1019.45 1020.68 1021.47 1022.06 1022.62 1023.39 1024.40 1024.99 1025.78 1026.47 1027.25 1027.99 1028.67 1029.33 1030.02
Wind_Speed
18 12 12 14 12 11 11 10 12 11 10 10 11 10 8 6 6 7 6 7 5 4
16 16 15 15 14 12 11 9 12 12 11 10 9 10 10 6 7 7 6 7 6 5
18 17 15 15 16 15 12 13 14 13 13 12 11 10 10 8 8 8 5 5 7 5
16 17 16 15 15 15 15 15 16 15 14 14 10 11 11 9 8 9 7 7 7 6
16 16 16 16 16 16 16 16 16 15 14 11 13 11 11 11 9 9 8 9 8 7
16 17 17 16 16 16 17 16 16 16 14 14 13 12 13 11 10 10 9 10 10 9
17 17 16 16 16 17 16 17 17 17 15 14 14 13 12 10 10 9 8 8 9 10
16 16 16 16 15 16 16 16 17 16 14 12 13 11 14 15 11 10 9 9 9 9
15 16 17 17 16 14 16 15 15 14 15 15 11 18 19 16 11 11 10 10 10 9
16 17 17 16 16 15 17 16 14 13 14 15 12 23 21 18 10 11 9 12 11 9
16 16 15 16 16 13 14 15 13 13 13 12 11 23 22 18 10 9 10 12 11 11
14 15 16 15 15 13 13 12 12 12 13 14 13 23 22 19 10 9 10 10 11 11
11 12 13 13 13 11 11 10 9 11 11 14 14 21 22 16 8 10 8 10 10 11
9 10 10 11 10 10 10 10 9 10 10 12 15 17 23 22 11 9 9 8 9 8
Wind_Direction
190 190 195 190 183 190 191 187 174 173 169 162 158 149 142 137 132 132 134 132 131 127
192 194 196 190 189 191 187 176 172 170 163 160 161 157 149 145 142 142 144 137 143 139
192 194 192 188 189 191 184 176 171 170 165 166 162 172 159 151 153 149 152 150 151 150
193 193 192 193 191 189 181 178 176 167 168 172 172 171 164 158 155 153 164 163 157 157
191 195 193 196 193 185 186 183 179 175 175 171 171 166 167 161 163 164 166 174 170 165
195 196 198 198 194 188 187 184 184 181 174 172 172 170 170 167 164 163 173 181 179 170
196 198 197 195 193 194 190 185 187 186 175 176 168 169 167 164 157 165 176 182 185 174
197 197 195 193 191 194 193 192 189 180 176 169 171 171 168 173 164 168 168 181 188 186
193 194 194 191 192 188 193 191 183 177 174 172 180 171 166 162 163 165 173 182 187 188
192 194 195 192 189 188 193 185 182 175 174 180 175 162 159 159 164 167 175 194 179 189
189 191 190 190 192 187 188 182 176 177 174 170 167 164 161 160 162 166 186 196 184 191
191 187 185 191 193 185 182 175 177 171 169 170 165 168 161 161 163 175 181 186 180 189
196 190 192 195 186 173 174 171 164 165 174 171 165 165 162 162 167 172 171 179 181 183
192 195 190 181 178 169 161 150 158 162 167 167 166 169 168 172 172 169 172 172 182 178